Hourly Data Report for October 22, 2016

All times are specified in Local Standard Time (LST). Add 1 hour to adjust for Daylight Saving Time where and when it is observed.

KUGAARUK CLIMATE
NUNAVUT

68°32'15.060" N
89°47'47.020" W
15.80 m
2303094
71407
NBB

Download Data

Hourly Data (October 2016)
Hourly Data Report for October 22, 2016
Temp Definition
°C
Dew Point Temp Definition
°C
Rel Hum Definition
%
Wind Dir Definition
10's deg

Wind Spd Definition
km/h
Visibility Definition
km
Stn Press Definition
kPa
Hmdx Definition


Wind Chill Definition


Weather Definition


TIME
00:00 -12.0 -14.0 85 26 10   102.48   -18 LegendNANA
01:00 -11.9 -13.8 85 26 5   102.53   -15 LegendNANA
02:00 -11.5 -13.5 85 25 3   102.59   -13 LegendNANA
03:00 -10.8 -13.3 82 18 6   102.64   -14 LegendNANA
04:00 -10.8 -13.7 79 11 5   102.68   -14 LegendNANA
05:00 -11.1 -13.7 81   0   102.71     LegendNANA
06:00 -11.1 -13.8 81 10 8   102.75   -16 LegendNANA
07:00 -11.1 -14.0 79 16 9   102.80   -16 LegendNANA
08:00 -11.0 -14.0 79 8 6   102.83   -15 LegendNANA
09:00 -10.9 -13.8 79 9 7   102.85   -15 LegendNANA
10:00 -10.2 -13.5 76 16 2   102.90   -11 LegendNANA
11:00 -10.7 -13.4 80 11 9   102.94   -16 LegendNANA
12:00 -10.7 -13.3 81 11 9   102.98   -16 LegendNANA
13:00 -10.6 -13.1 82 7 6   103.01   -14 LegendNANA
14:00 -10.5 -12.7 84 10 8   103.04   -15 LegendNANA
15:00 -10.9 -12.9 85 7 4   103.07   -13 LegendNANA
16:00 -13.4 -15.5 84   0   103.10     LegendNANA
17:00 -16.0 -18.1 83 7 1   103.11   -17 LegendNANA
18:00 -14.5 -16.3 86 19 2   103.11   -16 LegendNANA
19:00 -15.7 -17.3 87 0 1   103.15   -16 LegendNANA
20:00 -15.7 -17.3 88 0 1   103.19   -16 LegendNANA
21:00 -13.8 -15.4 88 25 13   103.24   -21 LegendNANA
22:00 -14.4 -16.0 87 27 2   103.26   -16 LegendNANA
23:00 -15.2 -17.0 86 22 4   103.27   -18 LegendNANA

Notes on Data Quality.

Legend

  • E = Estimated
  • M = Missing
  • NA = Not Available
  • ‡ = Partner data that is not subject to review by the National Climate Archives
Date modified: